Location: Dover
(39.1580°N, 75.5250°W)
Time: 16:37:47
(UTC-04:00)

SeaSat 1 - Visible Passes

Search period start: 23 May 2017 00:00
Search period end: 02 June 2017 00:00
Orbit: 744 x 748 km, 108.0° (Epoch: 22 May)

Date Brightness Start Highest point End Pass type
(mag) Time Alt. Az. Time Alt. Az. Time Alt. Az.
23 May 2.9 00:29:44 56° NNW 00:29:44 56° NNW 00:33:38 10° NNW visible
23 May 3.4 23:46:39 37° ENE 23:46:50 37° ENE 23:51:21 10° N visible
24 May 4.3 01:26:26 21° WNW 01:26:26 21° WNW 01:28:35 10° NW visible
24 May 4.6 23:03:35 14° ENE 23:05:17 16° NE 23:08:11 10° NNE visible
25 May 3.0 00:43:22 53° NW 00:43:22 53° NW 00:47:11 10° NNW visible
26 May 3.3 00:00:17 40° ENE 00:00:22 40° ENE 00:04:58 10° N visible
26 May 4.4 01:40:04 19° WNW 01:40:04 19° WNW 01:42:00 10° NW visible
26 May 4.5 23:17:12 15° ENE 23:18:47 17° NE 23:21:56 10° N visible
27 May 3.1 00:56:59 50° NW 00:56:59 50° NW 01:00:44 10° NNW visible
28 May 3.2 00:13:54 44° ENE 00:13:54 44° ENE 00:18:35 10° NNW visible
28 May 4.4 01:53:41 17° WNW 01:53:41 17° WNW 01:55:25 10° NW visible
28 May 4.4 23:30:49 17° ENE 23:32:17 19° NE 23:35:39 10° N visible
29 May 3.2 01:10:35 46° WNW 01:10:35 46° WNW 01:14:16 10° NNW visible
30 May 3.1 00:27:30 49° NE 00:27:30 49° NE 00:32:10 10° NNW visible
30 May 4.5 02:07:17 16° WNW 02:07:17 16° WNW 02:08:47 10° WNW visible
30 May 4.3 23:44:24 18° ENE 23:45:47 20° NE 23:49:21 10° N visible
31 May 3.2 01:24:11 43° WNW 01:24:11 43° WNW 01:27:47 10° NW visible
01 Jun 2.9 00:41:05 54° NE 00:41:05 54° NE 00:45:47 10° NNW visible
01 Jun 4.6 02:20:52 14° WNW 02:20:52 14° WNW 02:22:08 10° WNW visible
